Theta_e
350 349 348 347 346 347 346 347 347 347 346 345 345 345 342 339 341 342 342 338 342 345 347 349 349 352 351 349 347 343 344 347 349
349 349 349 348 346 346 346 346 346 347 346 345 345 344 342 338 337 340 338 335 340 343 345 348 351 352 352 351 350 349 344 345 349
344 348 350 349 347 346 346 345 344 346 346 346 345 344 343 336 331 332 333 334 334 340 341 345 353 354 353 351 350 349 348 343 349
343 345 350 350 348 347 346 345 344 345 346 346 346 345 343 342 333 328 329 334 333 333 338 347 351 350 353 353 351 350 349 340 345
341 344 350 350 350 347 347 346 345 344 345 345 345 343 344 344 343 337 332 333 335 334 333 337 354 354 354 355 355 352 351 342 340
335 343 349 350 351 348 348 347 346 344 344 344 343 344 344 344 343 342 340 335 333 334 333 333 336 353 354 353 354 355 353 349 337
337 336 346 349 351 350 349 348 347 346 345 344 345 344 344 343 342 342 342 338 329 330 333 335 336 340 344 348 350 349 348 347 346
338 337 345 349 350 351 350 349 348 347 347 346 346 346 346 346 344 343 342 339 336 333 334 336 337 339 341 343 346 347 347 346 346
339 342 345 347 348 350 351 350 349 349 348 348 348 348 349 349 351 352 350 349 345 341 337 337 340 339 341 343 343 342 343 343 344
337 337 336 336 338 342 350 351 351 351 350 350 350 350 351 352 352 353 354 355 355 352 348 345 343 344 344 342 340 339 339 340 342
333 333 333 333 334 337 336 350 351 350 351 351 351 352 353 354 354 354 355 356 356 356 353 351 350 348 345 343 339 337 337 338 341
343 342 341 341 340 340 339 340 347 354 353 352 352 353 354 354 354 355 356 356 357 356 356 356 355 354 352 347 343 341 338 341 345
341 344 344 343 342 340 339 338 339 342 353 351 353 353 353 354 356 356 356 356 357 357 357 356 356 355 353 351 348 348 347 348 351
340 342 345 344 341 345 347 342 337 337 350 351 347 346 342 344 350 353 355 357 358 358 358 358 358 358 357 354 351 351 351 353 356
336 337 342 347 346 348 348 349 343 336 336 340 348 352 350 348 347 348 353 357 359 360 360 360 360 360 359 357 355 354 353 356 358
326 333 333 348 354 355 353 351 350 348 336 336 339 335 335 346 350 347 349 351 358 362 362 362 361 361 360 359 359 357 356 358 362
322 324 330 330 339 348 354 355 355 348 346 341 340 339 335 352 355 352 351 351 356 359 363 363 363 363 363 363 363 361 360 360 361
320 321 326 328 327 325 342 349 355 360 353 347 345 343 339 340 351 356 354 357 357 360 363 363 363 363 364 363 362 359 358 359 360
319 319 322 330 331 326 332 348 351 357 363 360 358 356 349 356 360 359 359 359 358 359 365 365 365 366 364 363 363 365 363 362 362
318 318 318 328 333 325 331 345 349 349 349 360 362 360 362 356 363 363 362 362 362 359 361 366 366 365 363 363 364 361 361 361 361
Wind_Speed
53 54 55 54 55 55 54 52 50 50 49 47 44 42 42 42 41 36 33 29 30 25 25 23 21 18 20 16 10 13 18 20 15
51 52 55 54 56 56 58 55 53 53 51 48 45 42 42 42 43 43 38 33 31 30 28 25 23 23 21 22 18 14 16 23 20
41 50 52 53 56 55 57 56 54 54 52 50 45 42 42 42 42 43 43 38 34 33 30 27 28 21 19 23 21 19 17 22 24
37 36 51 53 54 56 56 54 53 54 54 51 48 44 41 41 42 41 42 43 38 35 34 29 27 27 21 23 25 22 18 22 26
34 40 52 53 53 56 57 53 54 53 54 53 50 44 43 42 41 42 42 43 41 38 35 37 32 30 30 24 25 24 20 19 27
34 35 46 51 51 54 56 54 53 52 52 51 48 48 45 43 41 42 42 41 40 40 38 37 38 38 35 33 29 26 25 22 21
33 35 45 48 48 54 55 52 52 51 51 50 48 48 48 46 44 43 41 40 39 39 40 39 38 38 39 40 39 37 32 29 27
25 28 34 45 48 50 55 52 51 51 50 49 48 46 45 45 43 42 41 40 41 41 40 41 41 41 41 41 41 41 41 37 35
23 24 24 31 35 43 53 54 52 52 51 50 48 47 46 41 40 40 41 40 40 40 39 39 42 44 44 44 44 43 42 40 38
21 22 21 21 16 13 47 51 52 51 50 47 47 48 47 46 44 41 38 37 38 39 40 39 40 40 40 43 44 44 44 42 41
20 18 16 16 15 12 8 19 44 49 49 49 46 46 48 47 47 45 42 41 41 38 39 41 41 42 42 42 42 40 42 42 42
29 26 21 17 16 15 15 7 16 36 40 45 49 46 45 47 48 47 47 46 46 42 41 41 43 44 44 45 46 44 42 41 44
25 22 19 15 13 12 10 9 7 16 33 34 38 43 44 43 41 41 45 46 46 45 43 42 41 43 44 45 46 47 46 44 44
24 20 17 10 5 11 14 12 6 5 12 30 34 32 27 29 36 43 42 42 44 45 45 43 43 42 43 44 45 45 44 44 45
29 22 16 12 7 10 11 13 12 10 8 7 17 25 30 31 30 31 38 41 42 42 43 43 43 42 42 43 44 44 43 42 42
24 25 19 15 15 13 12 15 14 15 14 16 17 18 24 24 32 29 28 34 41 40 40 42 43 43 43 43 42 42 41 40 37
19 19 23 17 16 17 14 12 15 18 16 18 20 17 22 22 27 28 27 27 33 36 40 43 43 43 42 40 37 36 34 32 31
17 16 23 21 20 23 18 17 14 15 16 20 24 23 23 25 28 29 29 28 30 35 36 39 39 40 37 34 33 31 29 25 23
17 18 20 24 26 25 21 20 21 18 15 17 20 22 22 24 28 30 30 30 30 33 32 34 33 30 26 25 29 26 23 21 27
25 24 24 24 28 29 22 22 22 24 25 22 21 23 22 24 27 28 30 32 32 29 33 33 27 27 27 26 27 26 23 20 22
Wind_Direction
190 188 188 187 188 191 191 197 203 210 213 216 219 223 223 221 222 222 223 222 216 217 222 228 235 233 234 234 231 229 229 228 229
187 187 185 186 187 190 195 196 201 209 215 218 219 222 224 221 220 224 226 226 220 217 218 227 238 241 239 234 233 237 231 232 229
185 186 183 184 185 188 197 199 203 206 217 220 222 222 224 225 223 223 228 231 226 223 221 220 225 237 243 237 235 246 245 228 231
187 179 180 181 183 188 198 202 202 207 212 220 223 225 224 225 228 225 227 230 232 228 226 220 223 230 233 231 234 240 250 235 228
181 186 178 180 181 186 196 202 201 207 212 217 225 228 228 227 230 233 231 229 233 235 230 225 220 226 232 233 235 239 246 247 231
208 178 173 178 179 183 194 201 204 208 213 218 223 226 229 232 232 233 236 237 233 235 236 231 226 223 232 238 241 241 244 248 247
187 182 173 177 177 185 194 203 205 209 214 218 222 225 229 231 234 235 235 239 240 235 235 235 233 232 232 237 241 245 248 249 250
159 187 174 172 180 184 193 200 206 210 215 216 219 225 227 231 234 236 237 237 240 242 238 240 241 239 240 241 241 244 248 251 252
100 127 136 179 190 188 190 199 209 211 213 216 217 220 227 231 233 235 237 238 239 241 244 240 241 245 245 244 245 247 250 252 253
95 91 95 100 115 127 200 200 206 206 212 215 217 223 225 229 231 234 237 239 239 241 242 244 245 243 245 247 248 248 249 252 253
83 73 68 67 70 81 128 190 213 216 214 215 221 224 226 228 231 235 237 237 239 241 243 245 245 248 247 248 249 249 249 251 253
73 76 70 64 62 60 75 107 196 212 214 217 220 224 229 232 233 235 237 239 239 242 244 245 247 249 251 250 251 250 250 250 250
59 66 65 58 46 40 43 40 65 203 213 213 216 224 229 233 235 238 239 241 242 243 246 249 251 252 253 255 256 256 255 253 251
46 48 54 68 63 29 16 358 343 46 197 213 218 225 228 233 238 242 243 242 242 243 245 248 250 254 255 257 259 260 261 259 255
37 34 39 42 31 350 343 352 331 308 285 215 224 237 241 240 239 240 241 242 242 242 243 246 250 252 255 257 259 262 263 261 259
27 26 24 33 20 14 354 340 336 310 274 267 269 255 247 248 243 242 238 239 238 239 241 245 248 250 253 257 257 260 262 263 263
9 16 10 15 9 355 345 337 322 293 284 279 272 271 252 253 245 242 240 237 238 238 240 242 243 247 250 252 256 260 261 262 262
350 354 359 350 344 346 331 330 319 328 295 279 277 274 262 249 247 243 243 230 232 235 240 243 245 246 246 250 255 259 261 262 263
338 339 348 339 331 335 323 318 307 301 290 270 269 275 268 244 241 236 235 234 231 229 233 238 239 241 249 252 248 255 257 258 260
323 329 337 329 319 320 305 300 294 297 292 277 272 262 264 241 234 231 229 231 230 229 226 233 232 235 238 240 243 247 254 243 248